| time (UTC) | temp C | wind direction | speed KPH | gust KPH | rain 1hr cm | rain 24hr cm | rain mn cm | humidity % | barometer mb |
| 20260901081512 | 23 | 69 | 0.0 | 0.0 | 0.00 | 0.03 | 0.00 | 74 | 1018.6 |
| 20260901080015 | 23 | 66 | 0.0 | 0.0 | 0.00 | 0.03 | 0.00 | 74 | 1018.6 |
| 20260901074512 | 23 | 66 | 0.0 | 0.0 | 0.00 | 0.03 | 0.00 | 75 | 1018.6 |
| 20260901073010 | 23 | 66 | 0.0 | 0.0 | 0.00 | 0.03 | 0.00 | 75 | 1018.6 |
| 20260901071508 | 23 | 67 | 0.0 | 0.0 | 0.00 | 0.03 | 0.00 | 75 | 1018.8 |
| 20260901070007 | 23 | 67 | 0.0 | 0.0 | 0.00 | 0.03 | 0.00 | 75 | 1018.9 |
| 20260901064515 | 23 | 67 | 0.0 | 0.0 | 0.00 | 0.03 | 0.00 | 76 | 1018.8 |
| 20260901063012 | 23 | 67 | 0.0 | 0.0 | 0.00 | 0.03 | 0.00 | 76 | 1018.9 |
| 20260901061503 | 23 | 67 | 0.0 | 0.0 | 0.00 | 0.03 | 0.00 | 75 | 1018.9 |
| 20260901060004 | 23 | 67 | 0.0 | 0.0 | 0.00 | 0.03 | 0.00 | 76 | 1019.1 |
| 20260901054502 | 22 | 67 | 0.0 | 0.0 | 0.00 | 0.03 | 0.00 | 75 | 1019.2 |
| 20260901053105 | 22 | 66 | 0.0 | 0.0 | 0.00 | 0.03 | 0.00 | 76 | 1019.1 |
| 20260901051602 | 22 | 66 | 0.0 | 0.0 | 0.00 | 0.03 | 0.00 | 76 | 1019.1 |
| 20260901050057 | 23 | 67 | 0.0 | 0.0 | 0.00 | 0.03 | 0.00 | 76 | 1019.2 |
| 20260901044602 | 23 | 67 | 0.0 | 0.0 | 0.00 | 0.03 | 0.00 | 76 | 1019.1 |
| 20260901043054 | 23 | 66 | 0.0 | 0.0 | 0.00 | 0.03 | 0.00 | 77 | 1018.9 |
| 20260901041554 | 23 | 66 | 0.0 | 0.0 | 0.00 | 0.03 | 0.00 | 76 | 1018.8 |
| 20260901040050 | 23 | 66 | 0.0 | 0.0 | 0.00 | 0.03 | 0.00 | 77 | 1019.0 |
| 20260901034548 | 23 | 67 | 0.0 | 0.0 | 0.00 | 0.03 | 0.03 | 77 | 1018.9 |
| 20260901033048 | 23 | 66 | 0.0 | 0.0 | 0.00 | 0.03 | 0.03 | 77 | 1018.8 |
| 20260901031547 | 23 | 66 | 0.0 | 0.0 | 0.00 | 0.03 | 0.03 | 78 | 1018.8 |
| 20260901030046 | 23 | 66 | 0.0 | 0.0 | 0.00 | 0.03 | 0.03 | 78 | 1018.8 |
| 20260901024546 | 23 | 66 | 0.0 | 0.0 | 0.00 | 0.03 | 0.03 | 78 | 1018.8 |
| 20260901023045 | 23 | 66 | 0.0 | 0.0 | 0.00 | 0.03 | 0.03 | 78 | 1018.9 |
| 20260901021545 | 23 | 66 | 0.0 | 0.0 | 0.00 | 0.03 | 0.03 | 78 | 1018.9 |
| 20260901020045 | 24 | 67 | 0.0 | 0.0 | 0.00 | 0.03 | 0.03 | 78 | 1018.9 |
| 20260901014546 | 24 | 66 | 0.0 | 0.0 | 0.00 | 0.03 | 0.03 | 77 | 1018.8 |
| 20260901013044 | 25 | 67 | 0.0 | 0.0 | 0.00 | 0.03 | 0.03 | 77 | 1018.6 |
| 20260901011543 | 25 | 67 | 0.0 | 0.0 | 0.00 | 0.03 | 0.03 | 76 | 1018.4 |
| 20260901010045 | 25 | 67 | 0.0 | 0.0 | 0.00 | 0.03 | 0.03 | 75 | 1018.2 |
| 20260901004543 | 25 | 67 | 0.0 | 0.0 | 0.00 | 0.03 | 0.03 | 75 | 1018.1 |
| 20260901003042 | 26 | 66 | 0.0 | 0.0 | 0.00 | 0.03 | 0.03 | 73 | 1017.8 |
| 20260901001541 | 26 | 66 | 0.0 | 0.0 | 0.00 | 0.03 | 0.03 | 73 | 1017.8 |
| 20260901000041 | 27 | 67 | 0.0 | 0.0 | 0.00 | 0.03 | 0.03 | 68 | 1017.7 |
| 20260831234549 | 27 | 25 | 0.0 | 0.0 | 0.00 | 0.03 | 0.03 | 67 | 1017.7 |
| 20260831233041 | 28 | 259 | 0.0 | 0.0 | 0.00 | 0.03 | 0.03 | 66 | 1017.6 |
| 20260831231539 | 29 | 315 | 0.0 | 0.0 | 0.00 | 0.03 | 0.03 | 66 | 1017.5 |
| 20260831230042 | 30 | 288 | 0.0 | 0.0 | 0.00 | 0.03 | 0.03 | 62 | 1017.5 |
| 20260831224538 | 31 | 287 | 0.0 | 0.0 | 0.00 | 0.03 | 0.03 | 55 | 1017.6 |
| 20260831223049 | 32 | 219 | 0.0 | 0.0 | 0.00 | 0.03 | 0.03 | 52 | 1017.6 |
| 20260831221537 | 33 | 279 | 0.0 | 9.7 | 0.00 | 0.03 | 0.03 | 48 | 1017.6 |
| 20260831220036 | 33 | 231 | 0.0 | 11.3 | 0.00 | 0.03 | 0.03 | 48 | 1017.5 |
| 20260831214549 | 33 | 246 | 0.0 | 11.3 | 0.00 | 0.03 | 0.03 | 51 | 1017.7 |
| 20260831213034 | 33 | 219 | 0.0 | 3.2 | 0.00 | 0.03 | 0.03 | 47 | 1017.9 |
| 20260831211535 | 33 | 219 | 0.0 | 0.0 | 0.00 | 0.03 | 0.03 | 51 | 1018.0 |
| 20260831210037 | 33 | 219 | 0.0 | 6.4 | 0.00 | 0.03 | 0.03 | 50 | 1017.9 |
| 20260831204530 | 33 | 254 | 0.0 | 0.0 | 0.00 | 0.03 | 0.03 | 52 | 1018.1 |
| 20260831203027 | 33 | 39 | 0.0 | 0.0 | 0.00 | 0.03 | 0.03 | 51 | 1018.2 |
| 20260831201524 | 33 | 280 | 0.0 | 0.0 | 0.00 | 0.03 | 0.03 | 47 | 1018.3 |
| 20260831200022 | 33 | 244 | 0.0 | 6.4 | 0.00 | 0.03 | 0.03 | 47 | 1018.4 |
| 20260831194519 | 33 | 215 | 0.0 | 3.2 | 0.00 | 0.03 | 0.03 | 50 | 1018.5 |
| 20260831193028 | 33 | 134 | 0.0 | 6.4 | 0.00 | 0.03 | 0.03 | 47 | 1018.7 |
| 20260831191514 | 33 | 142 | 0.0 | 4.8 | 0.00 | 0.03 | 0.03 | 51 | 1018.8 |
| 20260831190021 | 33 | 231 | 0.0 | 6.4 | 0.00 | 0.03 | 0.03 | 47 | 1019.0 |
| 20260831184510 | 32 | 211 | 0.0 | 4.8 | 0.00 | 0.03 | 0.03 | 50 | 1019.2 |
| 20260831183010 | 32 | 235 | 0.0 | 6.4 | 0.00 | 0.03 | 0.03 | 52 | 1019.4 |
| 20260831181508 | 32 | 78 | 0.0 | 11.3 | 0.00 | 0.03 | 0.03 | 56 | 1019.5 |
| 20260831180006 | 31 | 281 | 1.6 | 8.0 | 0.00 | 0.03 | 0.03 | 56 | 1019.5 |
| 20260831174600 | 31 | 238 | 0.0 | 0.0 | 0.00 | 0.03 | 0.03 | 62 | 1019.6 |
| 20260831173103 | 31 | 238 | 0.0 | 8.0 | 0.00 | 0.03 | 0.03 | 61 | 1019.7 |
| 20260831171558 | 31 | 236 | 0.0 | 4.8 | 0.00 | 0.03 | 0.03 | 64 | 1019.8 |
| 20260831170055 | 30 | 242 | 0.0 | 9.7 | 0.00 | 0.03 | 0.03 | 65 | 1019.9 |
| 20260831164607 | 30 | 55 | 0.0 | 6.4 | 0.00 | 0.03 | 0.03 | 70 | 1019.9 |
| 20260831163050 | 30 | 85 | 0.0 | 8.0 | 0.00 | 0.03 | 0.03 | 67 | 1020.1 |
| 20260831161601 | 30 | 234 | 0.0 | 8.0 | 0.00 | 0.03 | 0.03 | 69 | 1020.1 |
| 20260831160100 | 29 | 113 | 0.0 | 6.4 | 0.00 | 0.03 | 0.03 | 72 | 1020.4 |
| 20260831154544 | 28 | 230 | 0.0 | 8.0 | 0.00 | 0.03 | 0.03 | 73 | 1020.5 |
| 20260831153042 | 28 | 227 | 0.0 | 4.8 | 0.00 | 0.03 | 0.03 | 74 | 1020.8 |
| 20260831151538 | 28 | 227 | 0.0 | 0.0 | 0.00 | 0.03 | 0.03 | 75 | 1020.8 |
| 20260831150037 | 27 | 227 | 0.0 | 4.8 | 0.00 | 0.03 | 0.03 | 77 | 1020.9 |
| 20260831144530 | 27 | 231 | 4.8 | 4.8 | 0.00 | 0.03 | 0.03 | 77 | 1020.9 |
| 20260831143025 | -17 | 0.0 | 0.0 | 0.00 | 0.03 | 0.03 | 1020.9 | ||
| 20260831141522 | 26 | 223 | 0.0 | 8.0 | 0.00 | 0.03 | 0.03 | 76 | 1020.7 |
| 20260831140019 | 25 | 206 | 0.0 | 0.0 | 0.00 | 0.03 | 0.03 | 71 | 1020.5 |
| 20260831134519 | 24 | 206 | 0.0 | 4.8 | 0.00 | 0.03 | 0.03 | 66 | 1020.3 |
| 20260831133015 | 24 | 187 | 0.0 | 0.0 | 0.00 | 0.03 | 0.03 | 62 | 1020.4 |
| 20260831131513 | 23 | 177 | 0.0 | 0.0 | 0.00 | 0.03 | 0.03 | 60 | 1020.5 |
| 20260831130010 | 23 | 177 | 0.0 | 0.0 | 0.00 | 0.03 | 0.03 | 60 | 1020.6 |
| 20260831124507 | 22 | 177 | 0.0 | 0.0 | 0.00 | 0.03 | 0.03 | 60 | 1020.7 |
| 20260831123004 | 22 | 177 | 0.0 | 0.0 | 0.00 | 0.03 | 0.03 | 61 | 1020.6 |
| 20260831121501 | 21 | 177 | 0.0 | 0.0 | 0.00 | 0.03 | 0.03 | 61 | 1020.5 |
| 20260831120059 | 21 | 169 | 0.0 | 0.0 | 0.00 | 0.03 | 0.03 | 63 | 1020.5 |
| 20260831114556 | 20 | 138 | 0.0 | 0.0 | 0.00 | 0.03 | 0.03 | 64 | 1020.5 |
| 20260831113057 | 20 | 138 | 0.0 | 0.0 | 0.00 | 0.03 | 0.03 | 64 | 1020.4 |
| 20260831111554 | 20 | 138 | 0.0 | 0.0 | 0.00 | 0.03 | 0.03 | 65 | 1020.4 |
| 20260831110051 | 19 | 138 | 0.0 | 0.0 | 0.00 | 0.03 | 0.03 | 65 | 1020.4 |
| 20260831104551 | 19 | 138 | 0.0 | 0.0 | 0.00 | 0.03 | 0.03 | 65 | 1020.4 |
| 20260831103051 | 19 | 138 | 0.0 | 0.0 | 0.00 | 0.03 | 0.03 | 66 | 1020.2 |
| 20260831101548 | 19 | 138 | 0.0 | 0.0 | 0.03 | 0.03 | 0.03 | 66 | 1020.1 |
| 20260831100103 | 19 | 138 | 0.0 | 0.0 | 0.03 | 0.03 | 0.03 | 66 | 1020.1 |
| 20260831094548 | 20 | 138 | 0.0 | 0.0 | 0.03 | 0.03 | 0.03 | 66 | 1020.0 |
| 20260831093055 | 20 | 138 | 0.0 | 0.0 | 0.03 | 0.03 | 0.03 | 66 | 1019.9 |
| 20260831091543 | 20 | 138 | 0.0 | 0.0 | 0.00 | 0.00 | 0.00 | 66 | 1019.9 |
| 20260831090044 | 20 | 138 | 0.0 | 0.0 | 0.00 | 0.00 | 0.00 | 66 | 1019.8 |
| 20260831084540 | 20 | 138 | 0.0 | 0.0 | 0.00 | 0.00 | 0.00 | 66 | 1019.9 |
| 20260831083055 | 20 | 138 | 0.0 | 0.0 | 0.00 | 0.00 | 0.00 | 66 | 1019.9 |
| 20260831081545 | 20 | 138 | 0.0 | 0.0 | 0.00 | 0.00 | 0.00 | 67 | 1019.9 |